OneWeb SL0141

operational
NORAD ID: 47281 Int'l Des: 2020-100 Owner: ONEWEB Country: UK Constellation: oneweb
LEOCIRCULARPOLARONEWEB_TYPE

About OneWeb SL0141

Description loading...

Live Position

Loading 3D Globe...

Upcoming Passes

Altitude History

Altitude vs Time

uPlot chart will show altitude changes over time

Two-Line Element Set

1 47281U 20100Z 26063.34681268 -.00000347 00000-0 -10001-2 0 9990
2 47281 87.8988 11.4830 0001917 91.2156 268.9192 13.12442419250983
Epoch: Mar 4, 2026 • Age: 22 hours

Current Status

Altitude 1217.2 km
Velocity 7.25 km/s
Sub-Earth Point 33.10°N, 59.18°E
Launch Date Dec 18, 2020
Age 5.2 years
Type internet

Technical Details

Classification Payload
Mass 148.00 kg
Dry Mass 140.00 kg
Total Mass 148.00 kg
Length 1.30 m
Diameter 1.00 m
Span 5.00 m
Shape Trapezoid+2 pan
Manufacturer ONEWUS
Bus Type ARROW
Phase Status In Orbit
Owner/State ONEWEB/UK

Large Constellations

Loading constellations...